Погода в Красюковской

Россия / Ростовская область     47°31′36″N   40°05′18″E
темп.,
°C
ветер,
м/с
пор.,
м/с
влажн.,
%
обл.,
%
осадки,
мм/ч
давл.,
гПа
погр.,
м
17 апреля, сб
сб1700:00+10ююв3694100 0.1 1019237
03:00+10зюз3595100 1.6 1019286
06:00+9зсз4794100 1.6 1019424
09:00+11з36675 1.6 10201081
12:00+14зюз66495 0.0 10211627
15:00+15з55447 0.0 10201787
18:00+12зюз455977 0.0 1021569
21:00+9зюз25727 0.0 1022108
18 апреля, вс
вс1800:00+8зсз22775 0.0 102128
03:00+7ссв118181 0.0 102110
06:00+7всв2382100 0.0 102148
09:00+11в4664100 0.0 1021490
12:00+14вюв4452100 0.0 10201431
15:00+16вюв334876 0.0 10191639
18:00+11ю3574100 0.0 1018214
21:00+11в2578100 0.1 1019262
19 апреля, пн
пн1900:00+10в2681100 0.0 1018307
03:00+10вюв3790100 0.1 1016286
06:00+10в3697100 1.9 1015284
09:00+11юв2597100 3.1 1015293
12:00+12ююз2393100 0.8 1014364
15:00+14юз3484100 0.8 1013602
18:00+14зюз2384100 0.1 1013241
21:00+12юв2296100 1.1 101355
20 апреля, вт
вт2000:00+12вюв3699100 4.8 1011197
03:00+13в51197100 5.1 1008363
06:00+13в81296100 1.4 1005391
09:00+14в101882100 1.9 1002660
12:00+18юв111673100 0.1 1001839
15:00+16ююз81375100 0.4 10041037
18:00+16ю915640 0.0 10051486
21:00+12ююз10177128 0.0 10081161
21 апреля, ср
ср2100:00+11ююз111769100 0.0 10101487
03:00+10юз101577100 0.0 10131078
06:00+10юз71282100 0.0 1015733
09:00+12юз797163 0.0 10171078
12:00+15зюз785772 0.1 10181584
15:00+15зюз6749100 0.1 10191428
18:00+14зюз4659100 0.0 1020436
21:00+11з2270100 0.0 102133